Theta_e
349 346 349 350 348 340 345 343 345 345 343 344 345 350 349 347 345 345 346 350 346 350 350 351 348 343 347 347 347 347 347 347 347 346 346 346 349 352 350 349 346 345 343
351 351 348 347 350 349 349 349 344 344 344 345 345 344 346 346 347 345 349 349 350 350 350 350 350 347 347 344 346 347 346 348 348 348 346 347 350 351 350 352 350 346 346
350 350 347 350 350 349 350 347 345 343 344 343 344 343 343 345 344 346 348 350 350 351 351 351 351 349 351 348 350 349 347 346 346 346 347 346 347 348 349 349 349 349 346
349 350 350 350 350 350 349 348 343 341 340 342 343 343 344 344 344 346 348 349 350 351 350 350 350 350 351 351 351 351 348 350 348 350 348 348 347 348 349 347 345 345 347
344 344 346 345 347 347 348 347 346 346 347 349 347 344 347 350 349 343 347 349 346 350 350 350 350 348 346 346 349 350 349 349 347 346 345 345 346 348 346 345 345 346 346
340 341 341 342 346 346 347 346 342 344 346 346 349 351 352 350 349 345 345 351 351 351 351 351 347 345 343 343 343 346 348 348 348 348 345 345 347 350 347 348 348 348 347
341 341 342 342 343 345 344 343 343 343 346 345 347 350 350 349 344 343 343 343 350 353 352 351 352 348 350 351 349 344 341 340 342 345 347 350 349 351 352 351 349 349 349
339 340 340 341 340 341 342 342 342 339 344 345 344 346 347 347 344 345 345 345 350 352 353 351 350 351 349 346 348 350 352 352 352 349 349 349 350 352 351 349 348 351 352
342 341 337 337 336 336 339 340 341 341 340 343 342 344 344 344 343 345 345 349 350 352 348 346 347 347 346 345 346 346 350 351 352 352 351 347 345 344 345 346 349 350 350
336 338 337 335 338 338 338 338 339 339 340 340 340 340 341 342 341 340 341 342 344 344 345 346 345 345 345 345 345 345 345 348 345 345 347 348 348 347 347 347 347 352 352
334 334 334 330 331 329 328 330 332 334 336 337 339 339 338 337 338 338 339 339 340 336 337 337 338 340 340 339 340 338 336 337 338 341 344 346 348 349 352 352 349 349 349
325 326 327 327 325 324 323 324 328 331 332 332 330 326 328 329 329 330 330 330 328 327 326 326 326 327 329 330 329 327 327 327 326 325 326 332 337 339 343 343 342 340 343
316 319 321 322 323 323 323 322 322 324 325 325 324 325 324 328 327 325 323 323 323 322 322 321 321 320 322 323 323 322 322 332 336 336 337 337 337 337 339 340 340 343 342
309 310 311 312 314 317 319 320 321 322 322 321 321 321 321 321 321 321 321 321 320 319 320 320 320 320 322 321 324 327 329 331 333 333 332 332 332 332 331 331 332 335 335
307 308 309 310 312 311 313 314 313 315 318 317 318 318 319 318 317 315 314 312 312 311 310 311 317 318 319 320 322 323 324 329 331 330 328 328 327 327 327 327 326 325 326
306 309 309 309 309 310 309 309 310 310 311 312 312 312 311 310 308 306 306 305 304 304 304 305 310 314 315 318 319 321 323 322 322 321 322 324 324 325 326 326 326 327 327
308 305 305 306 307 307 308 308 305 303 303 303 303 303 303 302 303 303 303 303 303 303 308 309 310 310 309 307 311 315 316 317 316 317 318 319 320 320 320 322 323 324 324
305 303 305 305 305 305 306 306 306 306 306 304 301 301 301 301 302 302 302 302 306 305 306 306 306 306 307 307 308 309 310 306 308 312 312 315 316 316 317 317 318 319 321
303 303 304 304 303 303 304 304 304 304 304 304 303 301 300 300 301 301 301 303 303 303 303 303 303 304 304 305 305 305 305 306 305 307 309 309 311 313 314 315 316 316 315
304 302 302 303 301 303 303 303 303 303 303 303 302 300 300 302 302 302 301 300 301 301 300 300 300 300 300 300 301 303 304 304 305 306 306 307 307 306 307 308 309 310 310
303 300 301 303 303 302 302 302 302 302 302 302 301 299 299 300 301 301 300 300 299 298 298 298 298 298 298 298 298 299 300 301 301 301 302 304 305 304 304 304 303 303 304
303 302 301 302 302 302 302 301 301 301 301 301 301 300 298 300 300 300 299 298 298 297 297 297 297 297 297 297 297 297 297 296 296 296 297 297 298 300 300 300 301 302 302
303 303 302 302 302 301 300 301 301 301 301 301 300 300 300 300 299 298 297 297 297 296 296 295 295 295 295 295 295 295 295 295 295 296 296 295 295 295 297 299 299 300 300
302 302 302 302 302 302 302 301 300 299 300 300 301 300 300 300 299 299 298 296 296 296 295 295 294 294 294 294 294 294 294 294 294 294 294 295 295 296 295 295 297 298 298
303 302 302 302 302 301 301 301 301 301 300 300 300 300 300 300 299 299 298 296 296 296 295 295 295 294 294 294 294 294 294 294 294 295 296 297 298 299 299 299 299 300 300
305 303 302 302 303 303 302 302 301 301 301 300 300 301 300 300 299 299 298 296 296 295 295 294 294 294 294 294 294 294 294 294 294 297 298 299 300 301 301 301 301 301 301
Wind_Speed
14 16 13 11 11 12 9 8 7 9 11 8 10 11 11 10 9 9 11 11 11 11 11 11 11 13 10 10 11 11 11 12 15 16 15 15 19 16 17 15 14 14 13
13 15 16 13 11 11 11 8 7 6 11 10 10 11 10 10 11 10 9 10 11 10 10 12 12 10 13 13 11 13 13 14 15 17 17 16 15 16 16 16 15 13 15
13 14 15 15 13 13 13 12 11 10 10 10 10 11 11 10 11 9 10 10 10 10 11 11 11 10 11 10 12 11 12 13 13 14 16 15 16 16 15 16 15 15 14
11 14 14 14 14 13 14 16 15 13 12 13 12 12 11 12 12 10 9 10 10 11 11 10 10 11 11 10 11 12 11 11 12 14 14 14 15 15 14 16 17 17 17
14 11 10 12 14 15 16 16 16 15 13 12 13 13 12 11 10 12 11 10 11 10 11 11 12 12 14 13 11 12 14 13 13 15 16 16 16 14 17 17 18 19 19
18 17 18 14 15 16 15 16 18 15 12 12 12 12 12 11 16 16 15 12 12 12 12 12 13 16 16 16 17 17 18 19 19 17 18 19 19 17 17 18 18 20 23
20 19 17 18 19 18 15 13 14 15 12 12 11 11 15 19 21 19 18 17 14 13 13 13 12 12 14 14 16 18 20 21 23 23 25 23 23 20 20 21 20 21 24
18 17 17 16 13 11 11 12 13 12 9 8 8 14 16 16 16 17 17 18 16 14 13 14 14 15 19 18 18 18 18 18 19 21 20 22 22 20 21 23 25 25 24
18 15 11 12 11 10 10 11 11 9 8 10 13 14 13 12 10 11 10 9 11 14 17 16 17 19 20 22 21 23 20 21 19 22 24 26 29 28 28 29 26 24 27
17 15 12 10 10 11 11 11 12 12 11 11 11 11 12 12 11 9 7 1 5 7 12 13 14 16 18 17 14 15 17 14 18 24 28 31 30 28 24 24 26 23 25
17 14 13 12 11 12 11 10 10 10 9 8 8 7 9 6 6 5 6 5 5 0 1 3 7 8 10 9 9 9 12 15 16 15 15 13 14 14 16 18 21 23 25
13 15 13 12 10 11 12 13 13 13 12 12 10 6 5 2 2 2 3 3 3 1 2 4 5 6 6 8 10 10 11 14 16 16 15 16 17 18 16 19 21 20 19
9 9 11 11 10 10 9 8 7 7 8 8 8 5 3 6 7 6 6 7 7 7 7 7 7 9 9 8 11 12 14 11 12 13 13 12 11 13 15 14 15 17 22
8 8 9 9 9 9 7 6 5 5 5 6 8 10 11 11 11 11 10 11 11 11 13 15 15 16 16 16 13 11 10 11 12 11 12 13 13 13 13 14 15 16 19
5 5 5 5 6 8 9 8 9 12 11 6 8 10 11 15 15 16 17 17 16 17 17 12 9 9 10 10 11 11 11 11 12 13 13 14 15 15 16 16 16 18 19
5 5 5 4 5 6 5 8 9 9 9 10 11 12 14 13 13 11 11 14 13 12 12 10 8 8 7 7 8 9 9 13 13 15 15 16 17 17 17 19 19 19 20
7 6 5 5 4 4 6 4 2 6 5 7 8 8 8 9 9 9 8 10 10 9 6 6 6 6 11 11 9 10 11 12 16 14 17 17 18 19 20 19 20 21 22
7 6 5 5 5 5 4 4 4 4 1 5 4 5 6 8 8 8 8 7 5 6 6 6 7 8 9 11 12 13 17 19 17 16 17 17 19 20 21 22 21 22 23
6 5 6 6 6 6 5 4 4 4 4 3 0 2 2 4 5 5 4 3 4 5 7 7 8 9 10 12 13 15 17 17 21 20 21 21 19 19 20 22 23 26 27
8 11 9 6 6 6 6 6 5 5 4 3 2 1 2 5 5 5 5 5 6 6 7 9 11 12 13 14 15 16 16 17 17 18 20 24 25 24 28 30 31 31 30
9 10 11 7 6 6 5 5 5 4 3 3 1 1 1 4 2 3 5 7 8 10 11 12 14 15 15 16 16 17 16 18 19 20 20 20 23 26 25 27 30 32 35
10 10 9 7 7 6 6 5 5 5 4 3 2 3 3 4 2 4 6 7 9 11 12 14 16 17 18 20 21 21 21 22 23 23 23 28 30 33 33 31 32 33 34
12 12 11 11 9 10 6 6 5 5 4 4 3 2 1 2 3 4 7 8 11 12 13 17 18 20 21 22 22 23 23 23 23 24 27 29 30 29 28 32 33 35 35
14 14 14 12 11 8 8 7 7 7 5 4 2 1 1 2 3 6 8 14 15 14 15 18 19 21 22 22 22 22 22 23 25 25 26 31 36 36 33 32 33 35 38
18 18 17 16 14 11 11 8 7 6 4 4 2 1 2 2 4 6 8 16 18 19 19 20 21 22 23 23 23 22 24 24 24 23 28 33 34 34 33 34 35 34 36
22 21 20 19 17 14 12 11 9 7 5 4 3 2 2 3 5 7 9 13 18 20 20 21 21 22 24 25 25 25 24 24 21 22 25 28 31 30 30 32 34 35 36
Wind_Direction
216 221 216 217 212 220 232 221 205 205 199 208 207 199 202 208 213 213 204 215 227 230 230 245 255 252 257 265 275 276 279 282 284 287 292 305 311 319 318 324 332 339 325
209 215 222 226 221 217 219 221 217 207 210 209 203 207 216 215 219 223 218 228 232 236 242 247 251 256 265 266 269 275 271 269 278 286 293 304 306 313 315 322 321 324 314
209 216 223 224 227 222 220 221 217 213 208 207 207 218 227 228 229 238 228 226 226 236 243 248 257 253 258 250 255 263 278 283 280 283 288 297 301 310 310 319 320 325 328
198 207 217 220 225 224 218 220 223 227 223 226 231 235 237 232 227 221 224 228 227 231 237 240 247 248 259 266 273 270 279 280 282 283 288 294 302 305 306 316 316 318 318
210 209 211 225 225 221 220 214 215 222 224 225 228 230 228 230 233 233 228 230 238 234 238 244 248 246 249 262 260 272 272 277 283 284 286 292 297 304 303 308 311 313 317
227 234 231 234 221 214 208 207 208 211 216 221 224 227 225 222 233 236 234 231 239 244 249 259 253 257 267 265 265 268 270 277 276 273 280 285 292 297 302 299 300 306 309
218 226 229 230 226 208 203 203 208 212 216 222 225 220 221 220 229 234 238 242 238 241 248 252 255 264 269 268 276 274 267 268 269 275 276 278 283 291 292 296 298 295 300
222 222 224 219 214 195 194 212 214 217 210 217 227 231 229 234 237 236 237 241 247 245 245 250 255 256 257 263 266 267 268 271 278 282 277 282 285 288 282 292 295 300 306
212 209 202 195 196 196 204 204 198 189 185 194 203 220 222 229 241 242 229 220 227 234 244 254 254 262 268 269 270 273 274 273 274 279 275 272 275 276 279 284 285 288 291
163 175 183 169 172 183 190 190 194 185 194 207 217 233 249 235 217 222 239 274 233 250 258 263 265 267 271 280 286 283 287 293 285 281 271 273 276 278 278 275 280 280 284
161 168 168 163 170 168 173 171 167 168 176 188 198 204 215 223 239 233 247 245 238 248 318 315 289 284 290 292 292 292 292 295 302 308 307 297 278 277 274 275 286 284 289
153 158 160 165 157 165 163 164 162 161 164 167 164 151 170 167 205 203 243 253 263 21 294 295 296 308 308 297 298 300 303 307 311 311 313 307 303 297 291 287 287 288 284
175 179 178 182 181 177 171 168 160 168 158 155 168 162 186 224 248 261 266 275 286 288 290 294 300 301 305 311 303 302 302 312 307 309 312 313 309 307 310 312 294 284 287
181 189 195 198 195 183 171 182 177 172 205 212 225 234 246 252 247 252 262 270 277 282 288 291 296 302 304 306 314 317 307 297 299 305 308 311 311 308 309 309 308 305 305
184 180 175 183 180 199 201 188 222 223 216 207 229 241 245 261 274 282 286 289 289 292 296 302 310 316 316 308 301 302 302 290 291 297 310 308 308 311 311 310 310 312 306
176 167 168 161 161 160 182 214 228 234 233 245 254 261 273 276 283 291 298 302 305 308 312 316 329 325 317 317 318 308 301 310 312 310 312 309 309 307 302 301 306 300 301
179 188 190 165 172 170 165 174 223 219 218 225 238 250 268 287 296 302 303 301 302 315 347 354 342 317 310 315 313 311 313 312 312 316 310 306 306 305 305 302 301 298 297
200 198 173 169 172 170 171 168 172 188 205 321 283 297 304 307 310 315 323 339 2 9 9 356 347 338 332 327 326 319 316 307 304 299 299 307 305 298 298 301 300 295 294
185 184 177 171 169 171 165 156 165 166 164 171 51 321 294 304 312 316 322 355 21 10 357 349 339 334 330 324 319 316 312 311 309 309 307 303 294 293 293 292 291 290 292
194 192 169 172 166 166 163 165 167 163 154 143 132 291 355 26 21 10 353 5 13 2 346 341 333 329 321 317 315 314 314 312 310 307 300 291 295 294 287 286 284 284 285
197 195 181 176 178 178 172 170 168 158 157 150 150 262 44 104 45 9 7 359 357 349 343 336 330 329 326 322 318 316 314 308 307 304 301 298 295 294 293 292 292 289 287
198 201 191 194 194 187 186 180 171 167 161 162 163 271 11 66 25 11 355 353 343 342 338 335 333 330 327 325 323 322 316 313 309 303 301 302 290 285 288 291 290 289 287
207 207 201 199 194 206 196 185 180 173 174 170 174 180 331 334 354 348 351 349 343 340 336 337 337 338 336 333 331 328 323 319 314 309 305 302 299 296 293 290 288 286 283
219 215 212 207 204 195 201 193 196 186 179 187 191 197 290 324 333 330 343 343 349 340 335 333 332 333 333 331 327 324 318 314 311 313 313 309 303 300 293 288 286 287 286
219 219 215 213 212 200 208 199 203 201 201 197 198 215 289 320 323 324 327 337 343 341 336 331 328 325 325 324 323 319 318 316 312 313 313 314 311 307 305 302 300 299 295
216 222 218 215 215 208 209 209 209 211 217 221 227 252 300 324 327 323 322 329 337 340 336 332 328 324 324 324 321 318 313 314 307 311 316 323 321 316 312 308 305 302 299